Grindelwald, Switzerland 16 day weather forecast

Slopes altitude range 945 m - 2970m

Number of lifts: 44 Pistes: 213km

In some cases the lift and piste totals shown are for the ski domain (e.g. Three Valleys) rather than individual resort (e.g. Courchevel)

Overview

The 16 day weather forecast is fully updated 4 times every day.

    • Sun 17 FEB 2019
    • Sun 17
    • -9C 1C
    • Mon 18 FEB 2019
    • Mon 18
    • -7C -1C
    • Tue 19 FEB 2019
    • Tue 19
    • -11C -4C
    • Wed 20 FEB 2019
    • Wed 20
    • -11C -3C
    • Thu 21 FEB 2019
    • Thu 21
    • -10C -2C
    • Fri 22 FEB 2019
    • Fri 22
    • -9C -3C
    • Sat 23 FEB 2019
    • Sat 23
    • -8C -1C
    • Sun 24 FEB 2019
    • Sun 24
    • -7C 1C
    • Mon 25 FEB 2019
    • Mon 25
    • 0C 10C
    • Tue 26 FEB 2019
    • Tue 26
    • 0C 10C
    • Wed 27 FEB 2019
    • Wed 27
    • 1C 14C
    • Thu 28 FEB 2019
    • Thu 28
    • 4C 14C
    • Fri 01 MAR 2019
    • Fri 01
    • 3C 14C
    • Sat 02 MAR 2019
    • Sat 02
    • 2C 11C
    • Sun 03 MAR 2019
    • Sun 03
    • 2C 14C
    • Mon 04 MAR 2019
    • Mon 04
    • 4C 14C

Date:

Time Type 0°C level Temp Chill Snow Cloud Speed Gust Dir Press
12:00 2747m 1°C 1_5 0cm 0% 5mph 6mph 1025mB
15:00 2577m 1°C 1_4 0cm 22% 4mph 5mph 1024mB
18:00 1553m 1°C 1_6 0cm 37% 6mph 7mph 1026mB
21:00 1491m -7°C -7_7 0cm 20% 7mph 8mph 1027mB
0:00 1478m -7°C -7_7 0cm 12% 7mph 8mph 1026mB
3:00 1418m -7°C -7_7 0cm 43% 7mph 7mph 1026mB
6:00 1409m -7°C -7_7 0cm 72% 7mph 8mph 1025mB
9:00 2104m -7°C -7_7 0cm 100% 7mph 8mph 1024mB
12:00 2442m -1°C -1_5 0cm 100% 5mph 6mph 1022mB
15:00 2324m -1°C -1_4 0cm 95% 4mph 5mph 1021mB
18:00 1483m -1°C -1_5 0cm 96% 5mph 5mph 1023mB
21:00 1373m -8°C -8_4 0cm 99% 4mph 4mph 1024mB
0:00 1217m -9°C -9_2 0cm 99% 2mph 3mph 1024mB
3:00 1027m -10°C -10_1 0cm 98% 1mph 2mph 1024mB
6:00 839m -11°C -11_0 0cm 98% 0mph 2mph 1024mB
9:00 1709m -11°C -11_1 0cm 99% 1mph 1mph 1024mB
12:00 1978m -4°C -4_4 0cm 99% 4mph 4mph 1023mB
15:00 1956m -3°C -3_4 0cm 96% 4mph 4mph 1021mB
18:00 979m -3°C -3_1 0cm 62% 1mph 2mph 1024mB
21:00 896m -11°C -11_1 0cm 0% 1mph 2mph 1025mB
0:00 944m -11°C -11_2 0cm 10% 2mph 3mph 1025mB
3:00 866m -11°C -11_1 0cm 86% 1mph 2mph 1025mB
6:00 786m -11°C -11_0 0cm 93% 0mph 2mph 1026mB
9:00 1764m -11°C -11_1 0cm 100% 1mph 1mph 1026mB
12:00 2087m -3°C -3_3 0cm 100% 3mph 3mph 1025mB
15:00 2074m -3°C -3_4 0cm 100% 4mph 5mph 1024mB
18:00 1289m -3°C -3_2 0cm 100% 2mph 3mph 1027mB
21:00 1190m -9°C -9_1 0cm 99% 1mph 2mph 1029mB
0:00 1163m -9°C -9_1 0cm 97% 1mph 2mph 1029mB
3:00 1126m -9°C -9_1 0cm 88% 1mph 2mph 1029mB
6:00 1061m -10°C -10_1 0cm 90% 1mph 2mph 1030mB
9:00 1972m -10°C -10_3 0cm 99% 3mph 3mph 1030mB
12:00 2257m -2°C -2_3 0cm 100% 3mph 2mph 1028mB
15:00 2211m -2°C -2_4 0cm 100% 4mph 5mph 1028mB
18:00 1614m -2°C -2_3 0cm 100% 3mph 3mph 1030mB
21:00 1723m -6°C -6_4 0cm 100% 4mph 4mph 1031mB
0:00 1438m -7°C -7_4 0cm 95% 4mph 4mph 1031mB
3:00 1363m -8°C -8_6 0cm 95% 6mph 7mph 1031mB
6:00 1227m -9°C -9_7 0cm 47% 7mph 7mph 1032mB
9:00 1886m -9°C -9_8 0cm 0% 8mph 10mph 1031mB
12:00 2128m -3°C -3_9 0cm 0% 9mph 10mph 1029mB
15:00 2035m -3°C -3_10 0cm 40% 10mph 11mph 1028mB
18:00 1612m -3°C -3_8 0cm 63% 8mph 10mph 1030mB
21:00 1430m -8°C -8_6 0cm 56% 6mph 7mph 1032mB
0:00 1532m -8°C -8_6 0cm 28% 6mph 7mph 1032mB
3:00 1478m -7°C -7_6 0cm 1% 6mph 7mph 1032mB
6:00 1362m -8°C -8_4 0cm 1% 4mph 5mph 1033mB
9:00 2188m -8°C -8_3 0cm 0% 3mph 3mph 1034mB
12:00 2440m -1°C -1_2 0cm 0% 2mph 2mph 1033mB
15:00 2374m -1°C -1_3 0cm 0% 3mph 4mph 1032mB
18:00 1653m -1°C -1_5 0cm 0% 5mph 6mph 1035mB
21:00 1603m -6°C -6_7 0cm 85% 7mph 8mph 1036mB
0:00 1542m -6°C -6_7 0cm 58% 7mph 8mph 1037mB
3:00 1460m -7°C -7_7 0cm 0% 7mph 8mph 1038mB
6:00 1504m -7°C -7_6 0cm 0% 6mph 6mph 1038mB
9:00 2388m -7°C -7_4 0cm 0% 4mph 4mph 1038mB
12:00 2633m 1°C 1_2 0cm 14% 2mph 2mph 1037mB
15:00 2648m 1°C 1_3 0cm 38% 3mph 3mph 1036mB
18:00 1836m 1°C 1_2 0cm 19% 2mph 3mph 1037mB
21:00 3453m 1°C 1_2 0cm 0% 2mph 3mph 1038mB
0:00 3499m 0°C 0_2 0cm 0% 2mph 2mph 1037mB
3:00 2130m 0°C 0_2 0cm 0% 2mph 2mph 1037mB
6:00 2063m 0°C 0_2 0cm 0% 2mph 2mph 1037mB
9:00 3399m 0°C 0_2 0cm 0% 2mph 3mph 1036mB
12:00 3412m 10°C 10_4 0cm 0% 4mph 4mph 1034mB
15:00 3344m 10°C 10_4 0cm 0% 4mph 5mph 1032mB
18:00 3270m 10°C 10_2 0cm 0% 2mph 3mph 1033mB
21:00 3147m 3°C 3_3 0cm 0% 3mph 4mph 1034mB
0:00 2994m 2°C 2_3 0cm 0% 3mph 4mph 1033mB
3:00 2802m 1°C 1_3 0cm 0% 3mph 4mph 1031mB
6:00 2644m 0°C 0_3 0cm 0% 3mph 4mph 1031mB
9:00 2967m 0°C 0_4 0cm 0% 4mph 6mph 1030mB
12:00 3186m 10°C 10_7 0cm 0% 7mph 10mph 1028mB
15:00 3190m 10°C 10_7 0cm 0% 7mph 12mph 1027mB
18:00 3195m 10°C 10_3 0cm 0% 3mph 4mph 1029mB
21:00 3165m 2°C 2_1 0cm 0% 1mph 2mph 1030mB
0:00 3181m 1°C 1_1 0cm 0% 1mph 2mph 1031mB
3:00 2016m 0°C 0_1 0cm 0% 1mph 2mph 1031mB
6:00 1940m 0°C 0_1 0cm 0% 1mph 2mph 1032mB
Afternoon 0mm 0 2991m 14°C 14_2 0cm 0% 2mph 2mph 1032mB
Morning 0mm 0 3053m 4°C 4_5 0cm 5% 5mph 6mph 1034mB
Afternoon 0mm 0 3046m 14°C 14_3 0cm 10% 3mph 3mph 1032mB
Morning 0mm 0 3034m 3°C 3_4 0cm 0% 4mph 5mph 1031mB
Afternoon 0mm 0 2859m 14°C 14_1 0cm 0% 1mph 1mph 1029mB
Morning 0mm 0 2286m 2°C 2_4 0cm 0% 4mph 5mph 1034mB
Afternoon 0mm 0 2112m 11°C 11_4 0cm 1% 4mph 5mph 1036mB
Morning 0mm 0 2456m 2°C 2_4 0cm 14% 4mph 4mph 1037mB
Afternoon 0mm 0 2334m 14°C 14_2 0cm 15% 2mph 3mph 1034mB
Morning 0mm 0 2112m 4°C 4_5 0cm 14% 5mph 6mph 1032mB
Afternoon 0mm 0 2076m 14°C 14_2 0cm 2% 2mph 3mph 1027mB
Morning 0mm 0 1769m 3°C 3_6 0cm 6% 6mph 13mph 1026mB

16 day outlook at a glance

Forecast issued: 2/17/2019 2:54:53 PM

Chat

Your comments and questions. In a resort? Let us know what it's like!


Characters left 250

For terms and conditions see Readers Comments on the Cookie and privacy policy page.